Flag for Brunei Weather past 2 weeks in Bandar Seri Begawan, Brunei

Now
77 °F

Passing clouds.


Feels Like: 78 °F
Forecast: 79 / 90 °F
Wind: 5 mph from West

Location: Brunei Airport

Current Time: May 25, 2015 at 2:07:19 AM

Latest Report: May 25, 2015 at 1:30 AM


Visibility: N/A

Pressure: 29.83 "Hg

Humidity: 94%

Dew point: 75 °F

Location of Bandar Seri BegawanLocation

Historic Weather in Bandar Seri Begawan — Graph

°F

Bandar Seri Begawan temperature yesterday

Maximum temperature yesterday: 90 °F (at 11:30 AM)
Minimum temperature yesterday: 77 °F (at 5:00 AM)
Average temperature yesterday: 81 °F

Past Weeks' High & Low Weather Summary

 TemperatureHumidityPressure
High93 °F (May 10, 11:30 AM)100% (May 11, 5:30 AM)29.95 "Hg (May 11, 5:30 AM)
Low75 °F (May 17, 6:00 AM)52% (May 10, 11:00 AM)29.74 "Hg (May 10, 2:30 PM)
Average84 °F81%29.84 "Hg
* Reported May 10 1:00 AM — May 25 1:00 AM, Bandar Seri Begawan, Weather by CustomWeather, © 2015

Note: Actual official high and low records may vary slightly from our data, if they occured in-between our weather recording intervals... More about our weather records

Advertising

Bandar Seri Begawan weather history for previous 24 hours

 ConditionsComfort  
Time TempWeatherWind HumidityBarometerVisibility
1:00 AM
Mon, May 25
77 °FPassing clouds.3 mph94%29.83 "HgN/A
12:30 AM77 °FPassing clouds.3 mph94%29.86 "HgN/A
12:00 AM77 °FPassing clouds.2 mph94%29.86 "HgN/A
11:30 PM
Sun, May 24
79 °FPassing clouds.5 mph89%29.86 "HgN/A
11:00 PM79 °FPassing clouds.5 mph84%29.86 "HgN/A
10:30 PM79 °FPassing clouds.3 mph89%29.86 "HgN/A
10:00 PM79 °FPassing clouds.3 mph89%29.86 "HgN/A
9:30 PM79 °FPassing clouds.3 mph89%29.86 "HgN/A
9:00 PM79 °FPassing clouds.6 mph89%29.86 "HgN/A
8:30 PM79 °FPassing clouds.7 mph89%29.86 "HgN/A
8:00 PM79 °FPassing clouds.9 mph94%29.86 "HgN/A
7:30 PM79 °FPassing clouds.8 mph94%29.86 "HgN/A
7:00 PM81 °FPassing clouds.8 mph89%29.86 "HgN/A
6:30 PM81 °FPassing clouds.6 mph89%29.86 "HgN/A
6:00 PM81 °FBroken clouds.8 mph89%29.83 "HgN/A
5:30 PM81 °FBroken clouds.8 mph89%29.83 "HgN/A
5:00 PM82 °FBroken clouds.9 mph84%29.83 "HgN/A
4:30 PM82 °FBroken clouds.15 mph84%29.83 "Hg5 mi
4:00 PM84 °FBroken clouds.10 mph84%29.83 "Hg6 mi
3:30 PM82 °FBroken clouds.7 mph89%29.83 "Hg6 mi
3:00 PM79 °FLight rain. Broken clouds.8 mph94%29.83 "Hg4 mi
2:30 PM82 °FRain. Broken clouds.16 mph84%29.86 "Hg2 mi
2:00 PM86 °FSprinkles. Broken clouds.6 mph75%29.86 "Hg5 mi
1:30 PM84 °FSprinkles. Broken clouds.7 mph84%29.86 "Hg5 mi
1:00 PM86 °FSprinkles. Broken clouds.8 mph79%29.89 "Hg4 mi
12:30 PM88 °FSprinkles. Broken clouds.10 mph66%29.89 "Hg6 mi
12:00 PM88 °FPartly sunny.12 mph62%29.89 "HgN/A
11:30 AM90 °FPartly sunny.5 mph63%29.89 "HgN/A
11:00 AM88 °FPartly sunny.5 mph66%29.92 "HgN/A
10:30 AM86 °FPartly sunny.7 mph70%29.92 "HgN/A
10:00 AM84 °FPartly sunny.7 mph74%29.92 "HgN/A
9:30 AM84 °FPartly sunny.7 mph74%29.89 "HgN/A
9:00 AM84 °FPartly sunny.7 mph74%29.92 "HgN/A
8:30 AM81 °FBroken clouds.8 mph84%29.92 "HgN/A
8:00 AM79 °FBroken clouds.6 mph89%29.89 "HgN/A
7:30 AM77 °FPartly sunny.5 mph89%29.89 "HgN/A
7:00 AM77 °FPartly sunny.5 mph89%29.89 "HgN/A
6:30 AM77 °FPartly sunny.7 mph89%29.89 "HgN/A
6:00 AM77 °FPartly cloudy.10 mph89%29.89 "HgN/A
5:30 AM77 °FPassing clouds.9 mph94%29.89 "HgN/A
5:00 AM77 °FPassing clouds.12 mph94%29.86 "HgN/A
4:30 AM79 °FPartly cloudy.10 mph89%29.86 "HgN/A
4:00 AM79 °FPartly cloudy.9 mph94%29.86 "HgN/A
3:30 AM81 °FPartly cloudy.5 mph89%29.86 "HgN/A
3:00 AM79 °FPartly cloudy.3 mph94%29.86 "HgN/A
2:30 AM79 °FPartly cloudy.2 mph94%29.86 "HgN/A
2:00 AM81 °FPassing clouds.3 mph89%29.89 "HgN/A
Weather by CustomWeather, © 2015

See weather overviewHow to use our weather pages